Location: Unspecified
(0.0000°N, 0.0000°E)
Time: 22:15:15
(UTC+00:00)

Shinsei - Pass Details

Date: 15 December 2023
Orbit: 869 x 1860 km, 32.1° (Epoch: 01 March)

Event Time Altitude Azimuth Distance (km) Brightness Sun altitude
Rises 20:21:35 0° 212° (SSW) 5,128 14.0 -33.2°
Reaches altitude 10° 20:28:52 10° 182° (S) 4,219 13.1 -34.8°
Maximum altitude 20:32:05 11° 165° (SSE) 4,104 12.8 -35.5°
Drops below altitude 10° 20:35:18 10° 148° (SSE) 4,201 12.7 -36.2°
Enters shadow 20:38:23 - 134° (SE) 4,483 12.8 -36.9°
